Huron, SD

7:29 PM CST on February 10, 2016 (GMT -0600)
Huron Regional

Weather History for KHON - March, 2012

Change the Weather History Date:

Friday, March 30, 2012

  Actual Average Record
Temperature  
Mean Temperature 53 °F 39 °F  
Max Temperature 72 °F 51 °F 89 °F (1943)
Min Temperature 33 °F 28 °F -4 °F (1969)
Degree Days  
Heating Degree Days 12 26  
Month to date heating degree days 530 962  
Since 1 July heating degree days 5612 6794  
Cooling Degree Days 0 0  
Month to date cooling degree days 13 0  
Year to date cooling degree days 13 0  
Growing Degree Days 3 (Base 50)    
Moisture  
Dew Point 42 °F    
Average Humidity 76    
Maximum Humidity 96    
Minimum Humidity 33    
Precipitation  
Precipitation T in 0.07 in 0.62 in (1891)
Month to date precipitation 0.99 1.39  
Year to date precipitation 3.78 2.49  
Snow  
Snow 0.00 in 0.30 in 1.80 in (2009)
Month to date snowfall 0.1 8.7  
Since 1 July snowfall 31.4 39.7  
Snow Depth 0.00 in    
Sea Level Pressure  
Sea Level Pressure 29.75 in    
Wind  
Wind Speed 6 mph (SE)    
Max Wind Speed 16 mph    
Max Gust Speed 23 mph    
Visibility 8 miles    
Events      
T = Trace of Precipitation, MM = Missing Value Source: NWS Daily Summary

Daily Weather History Graph

Daily Weather History Graph

Search for Another Location

Airport or City:

Trip Planner

Search our weather history database for the weather conditions in past years. The results will help you decide how hot, cold, wet, or windy it might be!

Date:

Astronomy

Mar. 30, 2012 Rise Set
Actual Time 7:16 AM CDT 7:58 PM CDT
Civil Twilight 6:47 AM CDT 8:27 PM CDT
Nautical Twilight 6:12 AM CDT 9:02 PM CDT
Astronomical Twilight 5:36 AM CDT 9:38 PM CDT
Moon 12:13 PM CDT (3/30) 2:46 AM CDT (3/30)
Length of Visible Light 13h 40m
Length of Day
12h 41m
Waxing Crescent, 49% of the Moon is Illuminated
Mar 30
Waxing Crescent
Mar 30
First Quarter
Apr 6
Full
Apr 13
Last Quarter
Apr 21
New

Hourly Weather History & Observations

Time (CDT) Temp. Windchill Dew Point Humidity Pressure Visibility Wind Dir Wind Speed Gust Speed Precip Events Conditions
12:55 AM 39.0 °F 36.8 °F 37.0 °F 93% 29.78 in 10.0 mi WSW 3.5 mph - N/A   Clear
1:55 AM 39.9 °F 37.8 °F 37.0 °F 89% 29.78 in 10.0 mi West 3.5 mph - N/A   Clear
2:55 AM 39.0 °F - 37.0 °F 93% 29.77 in 10.0 mi Calm Calm - N/A   Clear
3:55 AM 35.1 °F 29.3 °F 33.1 °F 92% 29.78 in 6.0 mi West 6.9 mph - N/A   Clear
4:55 AM 34.0 °F 29.8 °F 33.1 °F 96% 29.78 in 5.0 mi West 4.6 mph - N/A   Clear
5:55 AM 36.0 °F 30.3 °F 34.0 °F 93% 29.78 in 7.0 mi West 6.9 mph - N/A   Clear
6:55 AM 36.0 °F - 34.0 °F 93% 29.78 in 8.0 mi Calm Calm - N/A   Clear
7:55 AM 37.0 °F - 35.1 °F 93% 29.80 in 5.0 mi Calm Calm - N/A   Clear
8:55 AM 39.9 °F 37.8 °F 37.9 °F 93% 29.82 in 5.0 mi East 3.5 mph - N/A   Partly Cloudy
9:36 AM 42.8 °F 39.3 °F 41.0 °F 93% 29.80 in 3.0 mi ESE 5.8 mph - N/A   Scattered Clouds
9:45 AM 42.8 °F 40.1 °F 41.0 °F 93% 29.81 in 3.0 mi ESE 4.6 mph - N/A   Mostly Cloudy
9:55 AM 44.1 °F 41.5 °F 42.1 °F 93% 29.83 in 4.0 mi SE 4.6 mph - N/A   Mostly Cloudy
10:14 AM 44.6 °F 43.1 °F 42.8 °F 93% 29.80 in 4.0 mi East 3.5 mph - N/A   Mostly Cloudy
10:55 AM 46.9 °F - 44.1 °F 90% 29.82 in 6.0 mi ESE 5.8 mph - N/A   Mostly Cloudy
11:33 AM 48.2 °F - 46.4 °F 93% 29.77 in 7.0 mi East 9.2 mph - 0.00 in   Mostly Cloudy
11:55 AM 51.1 °F - 48.0 °F 89% 29.77 in 7.0 mi East 9.2 mph - 0.00 in   Partly Cloudy
12:55 PM 55.0 °F - 50.0 °F 83% 29.76 in 10.0 mi SSE 8.1 mph - N/A   Partly Cloudy
1:08 PM 55.4 °F - 50.0 °F 82% 29.74 in 10.0 mi SE 8.1 mph - N/A   Scattered Clouds
1:55 PM 62.1 °F - 48.9 °F 62% 29.73 in 10.0 mi SSE 11.5 mph - N/A   Partly Cloudy
2:55 PM 66.0 °F - 46.9 °F 50% 29.70 in 10.0 mi SSE 10.4 mph - N/A   Clear
3:55 PM 69.1 °F - 43.0 °F 39% 29.68 in 10.0 mi SE 10.4 mph 21.9 mph N/A   Clear
4:55 PM 71.1 °F - 41.0 °F 34% 29.64 in 10.0 mi SSE 11.5 mph 21.9 mph N/A   Clear
5:55 PM 72.0 °F - 41.0 °F 33% 29.68 in 10.0 mi Variable 3.5 mph - N/A   Clear
6:55 PM 70.0 °F - 43.0 °F 38% 29.68 in 10.0 mi SE 5.8 mph - N/A   Clear
7:55 PM 63.0 °F - 45.0 °F 52% 29.69 in 10.0 mi ESE 5.8 mph - N/A   Clear
8:55 PM 62.1 °F - 45.0 °F 53% 29.69 in 10.0 mi SE 8.1 mph - N/A   Clear
9:55 PM 57.0 °F - 46.0 °F 67% 29.70 in 10.0 mi SE 5.8 mph - N/A   Clear
10:55 PM 57.0 °F - 46.0 °F 67% 29.69 in 10.0 mi SE 6.9 mph - N/A   Clear
11:55 PM 55.9 °F - 46.0 °F 69% 29.68 in 10.0 mi SSE 10.4 mph - N/A   Clear